Location: Kalberh�ni
(46.4610°N, 7.2453°E)
Time: 05:10:34
(UTC+00:00)

Cosmos 2333 Rocket - Pass Details

Date: 29 October 2021
Orbit: 837 x 865 km, 70.8° (Epoch: 05 December)

Event Time Altitude Azimuth Distance (km) Brightness Sun altitude
Exits shadow 04:14:08 37° 283° (WNW) 1,316 2.7 -20.2°
Maximum altitude 04:15:22 42° 253° (WSW) 1,214 2.5 -19.9°
Drops below altitude 10° 04:20:44 10° 183° (S) 2,498 4.6 -19.0°
Sets 04:23:18 0° 177° (S) 3,430 5.4 -18.6°
